When you browse on this site, cookies collect data to enhance your experience and personalize the content and advertising you see.
Visit our Privacy Policy to learn more. By continuing to use the site, you agree to this use of cookies and data.
  • în România
  • Lista ţărilor
  • Pe 7 zile
  • Temperatura apei
  • Hartă satelitară
  • Meteo pe hartă
  • Widget-uri
  • user-avatar
    Intrare

    Meteo pe oră la Arnay-le-Duc

    Astăzi, 25 Aprilie, Joi

    Timp Temperatura Precipitaţii Vânt Presiune Umiditate
    00:00 +9°C° 0 mm 3 m/s 719 mmHg 61%
    01:00 +9°C° 0.1 mm 3 m/s 719 mmHg 68%
    02:00 +9°C° 0.1 mm 3 m/s 718 mmHg 75%
    03:00 +9°C° 0.1 mm 3 m/s 718 mmHg 83%
    04:00 +8°C° 0.1 mm 4 m/s 718 mmHg 80%
    05:00 +10°C° 0.1 mm 4 m/s 718 mmHg 78%
    06:00 +10°C° 0.1 mm 4 m/s 719 mmHg 75%
    07:00 +11°C° 0.4 mm 4 m/s 719 mmHg 74%
    08:00 +12°C° 0.4 mm 5 m/s 719 mmHg 74%
    09:00 +13°C° 0.4 mm 5 m/s 719 mmHg 73%
    10:00 +12°C° 2.7 mm 4 m/s 719 mmHg 81%
    11:00 +10°C° 2.7 mm 4 m/s 720 mmHg 88%
    12:00 +9°C° 2.7 mm 3 m/s 720 mmHg 96%
    13:00 +9°C° 2 mm 3 m/s 720 mmHg 96%
    14:00 +8°C° 2 mm 2 m/s 720 mmHg 96%
    15:00 +8°C° 2 mm 2 m/s 720 mmHg 96%
    16:00 +9°C° 1.5 mm 1 m/s 721 mmHg 96%
    17:00 +8°C° 1.5 mm 1 m/s 721 mmHg 97%
    18:00 +8°C° 1.5 mm 1 m/s 721 mmHg 97%
    19:00 +8°C° 1.4 mm 1 m/s 722 mmHg 98%
    20:00 +7°C° 1.4 mm 1 m/s 723 mmHg 98%
    21:00 +7°C° 1.4 mm 1 m/s 723 mmHg 99%
    22:00 +6°C° 0.4 mm 2 m/s 724 mmHg 98%
    23:00 +5°C° 0.4 mm 2 m/s 724 mmHg 98%

    Mâine, 26 Aprilie, Vineri

    Timp Temperatura Precipitaţii Vânt Presiune Umiditate
    00:00 +5°C° 0.4 mm 2 m/s 724 mmHg 98%
    01:00 +5°C° 0 mm 2 m/s 724 mmHg 98%
    02:00 +5°C° 0 mm 2 m/s 724 mmHg 97%
    03:00 +5°C° 0 mm 2 m/s 725 mmHg 97%
    04:00 +5°C° 0 mm 2 m/s 725 mmHg 97%
    05:00 +6°C° 0 mm 1 m/s 725 mmHg 96%
    06:00 +6°C° 0 mm 1 m/s 726 mmHg 96%
    07:00 +8°C° 0.1 mm 1 m/s 726 mmHg 91%
    08:00 +9°C° 0.1 mm 1 m/s 727 mmHg 86%
    09:00 +11°C° 0.1 mm 1 m/s 728 mmHg 80%
    10:00 +12°C° 0.3 mm 1 m/s 728 mmHg 74%
    11:00 +14°C° 0.3 mm 1 m/s 728 mmHg 67%
    12:00 +15°C° 0.3 mm 1 m/s 728 mmHg 60%
    13:00 +15°C° 0.4 mm 1 m/s 728 mmHg 64%
    14:00 +14°C° 0.4 mm 2 m/s 728 mmHg 68%
    15:00 +14°C° 0.4 mm 2 m/s 728 mmHg 72%
    16:00 +13°C° 0.5 mm 2 m/s 728 mmHg 77%
    17:00 +12°C° 0.5 mm 2 m/s 728 mmHg 81%
    18:00 +10°C° 0.5 mm 2 m/s 728 mmHg 85%
    19:00 +9°C° 0 mm 2 m/s 729 mmHg 88%
    20:00 +9°C° 0 mm 2 m/s 729 mmHg 90%
    21:00 +8°C° 0 mm 2 m/s 730 mmHg 93%
    22:00 +8°C° 0.2 mm 3 m/s 730 mmHg 94%
    23:00 +8°C° 0.2 mm 3 m/s 731 mmHg 95%

    Poimâine, 27 Aprilie, Sâmbătă

    Timp Temperatura Precipitaţii Vânt Presiune Umiditate
    00:00 +7°C° 0.2 mm 4 m/s 731 mmHg 96%
    01:00 +6°C° 0.1 mm 4 m/s 731 mmHg 95%
    02:00 +5°C° 0.1 mm 4 m/s 730 mmHg 95%
    03:00 +4°C° 0.1 mm 4 m/s 730 mmHg 94%
    04:00 +5°C° 0 mm 4 m/s 730 mmHg 94%
    05:00 +5°C° 0 mm 4 m/s 730 mmHg 93%
    06:00 +5°C° 0 mm 4 m/s 730 mmHg 92%
    07:00 +6°C° 0.2 mm 4 m/s 730 mmHg 92%
    08:00 +6°C° 0.2 mm 4 m/s 730 mmHg 91%
    09:00 +7°C° 0.2 mm 5 m/s 730 mmHg 90%
    10:00 +7°C° 0.4 mm 5 m/s 730 mmHg 87%
    11:00 +8°C° 0.4 mm 6 m/s 730 mmHg 84%
    12:00 +8°C° 0.4 mm 7 m/s 730 mmHg 80%
    13:00 +8°C° 0.2 mm 6 m/s 730 mmHg 76%
    14:00 +8°C° 0.2 mm 6 m/s 730 mmHg 72%
    15:00 +8°C° 0.2 mm 6 m/s 730 mmHg 68%
    16:00 +7°C° 0.4 mm 5 m/s 731 mmHg 75%
    17:00 +6°C° 0.4 mm 4 m/s 731 mmHg 81%
    18:00 +5°C° 0.4 mm 4 m/s 731 mmHg 88%
    19:00 +4°C° 0.1 mm 3 m/s 731 mmHg 90%
    20:00 +4°C° 0.1 mm 3 m/s 732 mmHg 92%
    21:00 +3°C° 0.1 mm 3 m/s 732 mmHg 94%
    22:00 +2°C° 0 mm 3 m/s 732 mmHg 94%
    23:00 +2°C° 0 mm 3 m/s 732 mmHg 93%

    28 Aprilie, Duminică

    Timp Temperatura Precipitaţii Vânt Presiune Umiditate
    00:00 +2°C° 0 mm 3 m/s 732 mmHg 93%
    01:00 +1°C° 0 mm 3 m/s 732 mmHg 94%
    02:00 0°C° 0 mm 4 m/s 732 mmHg 94%
    03:00 0°C° 0 mm 4 m/s 731 mmHg 95%
    04:00 0°C° 0.6 mm 4 m/s 731 mmHg 95%
    05:00 +1°C° 0.6 mm 4 m/s 731 mmHg 96%
    06:00 +1°C° 0.6 mm 4 m/s 731 mmHg 96%
    07:00 +3°C° 0.6 mm 4 m/s 731 mmHg 95%
    08:00 +2°C° 0.6 mm 5 m/s 731 mmHg 95%
    09:00 +2°C° 0.6 mm 5 m/s 731 mmHg 94%
    10:00 +4°C° 0.1 mm 4 m/s 731 mmHg 92%
    11:00 +5°C° 0.1 mm 4 m/s 731 mmHg 91%
    12:00 +6°C° 0.1 mm 4 m/s 731 mmHg 89%
    13:00 +6°C° 0.2 mm 4 m/s 731 mmHg 88%
    14:00 +7°C° 0.2 mm 4 m/s 731 mmHg 88%
    15:00 +7°C° 0.2 mm 4 m/s 731 mmHg 87%
    16:00 +7°C° 0.1 mm 4 m/s 731 mmHg 88%
    17:00 +8°C° 0.1 mm 3 m/s 731 mmHg 89%
    18:00 +8°C° 0.1 mm 3 m/s 731 mmHg 90%
    19:00 +7°C° 0 mm 3 m/s 731 mmHg 92%
    20:00 +5°C° 0 mm 3 m/s 731 mmHg 93%
    21:00 +5°C° 0 mm 3 m/s 731 mmHg 95%
    22:00 +4°C° 0 mm 3 m/s 731 mmHg 96%
    23:00 +5°C° 0 mm 2 m/s 731 mmHg 97%

    29 Aprilie, Luni

    Timp Temperatura Precipitaţii Vânt Presiune Umiditate
    00:00 +5°C° 0 mm 2 m/s 731 mmHg 98%
    01:00 +4°C° 0 mm 2 m/s 731 mmHg 98%
    02:00 +4°C° 0 mm 2 m/s 731 mmHg 98%
    03:00 +4°C° 0 mm 2 m/s 731 mmHg 98%
    04:00 +5°C° 0 mm 2 m/s 731 mmHg 97%
    05:00 +5°C° 0 mm 2 m/s 731 mmHg 96%
    06:00 +5°C° 0 mm 2 m/s 731 mmHg 96%
    07:00 +6°C° 0 mm 2 m/s 731 mmHg 93%
    08:00 +6°C° 0 mm 2 m/s 731 mmHg 90%
    09:00 +7°C° 0 mm 2 m/s 731 mmHg 88%
    10:00 +8°C° 0 mm 2 m/s 731 mmHg 84%
    11:00 +9°C° 0 mm 2 m/s 731 mmHg 81%
    12:00 +10°C° 0 mm 2 m/s 731 mmHg 77%
    13:00 +12°C° 0 mm 2 m/s 731 mmHg 74%
    14:00 +13°C° 0 mm 2 m/s 731 mmHg 70%
    15:00 +14°C° 0 mm 2 m/s 730 mmHg 67%
    16:00 +13°C° 0.1 mm 2 m/s 730 mmHg 73%
    17:00 +12°C° 0.1 mm 2 m/s 730 mmHg 78%
    18:00 +10°C° 0.1 mm 2 m/s 730 mmHg 84%
    19:00 +9°C° 0 mm 2 m/s 730 mmHg 87%
    20:00 +8°C° 0 mm 2 m/s 730 mmHg 90%
    21:00 +7°C° 0 mm 2 m/s 730 mmHg 93%
    22:00 +7°C° 0 mm 2 m/s 730 mmHg 94%
    23:00 +6°C° 0 mm 2 m/s 730 mmHg 94%

    30 Aprilie, Marţi

    Timp Temperatura Precipitaţii Vânt Presiune Umiditate
    00:00 +6°C° 0 mm 2 m/s 730 mmHg 95%
    01:00 +5°C° 0 mm 2 m/s 730 mmHg 94%
    02:00 +5°C° 0 mm 2 m/s 729 mmHg 94%
    03:00 +5°C° 0 mm 1 m/s 729 mmHg 94%
    04:00 +6°C° 0 mm 1 m/s 729 mmHg 93%
    05:00 +7°C° 0 mm 1 m/s 729 mmHg 91%
    06:00 +8°C° 0 mm 1 m/s 729 mmHg 89%
    07:00 +9°C° 0 mm 2 m/s 729 mmHg 82%
    08:00 +12°C° 0 mm 2 m/s 729 mmHg 74%
    09:00 +13°C° 0 mm 3 m/s 729 mmHg 67%
    10:00 +14°C° 0.1 mm 3 m/s 729 mmHg 65%
    11:00 +14°C° 0.1 mm 3 m/s 729 mmHg 64%
    12:00 +16°C° 0.1 mm 3 m/s 728 mmHg 62%
    13:00 +16°C° 0.1 mm 3 m/s 728 mmHg 63%
    14:00 +16°C° 0.1 mm 3 m/s 728 mmHg 63%
    15:00 +16°C° 0.1 mm 3 m/s 727 mmHg 64%
    16:00 +14°C° 0 mm 3 m/s 727 mmHg 68%
    17:00 +13°C° 0 mm 3 m/s 727 mmHg 73%
    18:00 +13°C° 0 mm 2 m/s 727 mmHg 78%
    19:00 +10°C° 0 mm 2 m/s 728 mmHg 84%
    20:00 +9°C° 0 mm 2 m/s 728 mmHg 91%
    21:00 +8°C° 0 mm 1 m/s 728 mmHg 97%
    22:00 +8°C° 0 mm 1 m/s 728 mmHg 97%
    23:00 +7°C° 0 mm 1 m/s 728 mmHg 97%
    Arată mai mult